Location: Wald
(31.7579°N, 86.6655°W)
Time: 12:11:07
(UTC+00:00)

CENTAUR R/B - Pass Details

Date: 14 July 2020
Orbit: 760 x 1428 km, 63.5° (Epoch: 05 August)

Event Time Altitude Azimuth Distance (km) Brightness Sun altitude
Exits shadow 10:17:36 - 240° (WSW) 2,576 4.0 -7.2°
Reaches altitude 10° 10:17:56 10° 241° (WSW) 2,462 3.9 -7.1°
Maximum altitude 10:23:10 37° 308° (NW) 1,406 3.2 -6.2°
Drops below altitude 10° 10:29:14 10° 15° (NNE) 2,852 5.7 -5.0°
Sets 10:32:20 0° 23° (NNE) 3,925 6.6 -4.5°
